[[{"header":{"parameterUnit":"m.s-1","parameterCategory":1,"la1":30.2992,"la2":30.254,"lo1":-89.0895,"lo2":-89.0443,"dy":0.0025,"dx":0.0025,"nx":19,"ny":19,"refTime":"2026-05-22T21:00:00:Z","depth":0,"parameterNumber":2,"parameterNumberName":"U-component_of_WINDS"},"data":[0,0,0,-3.1893,-3.1894,-3.1934,-3.1934,-3.2002,-3.2002,0,0,0,0,0,0,0,0,0,0,0,-3.189,-3.1891,-3.1893,-3.1894,-3.1934,-3.1934,-3.2002,-3.2003,0,0,0,0,0,0,0,0,0,0,0,-3.189,-3.1891,-3.1892,-3.1895,-3.1934,-3.1934,-3.2001,-3.1966,0,0,0,0,0,0,0,0,0,0,-3.1925,-3.1929,-3.189,-3.1892,-3.1895,-3.1934,-3.1934,-3.1964,-3.1968,-3.1991,0,-3.2011,0,-3.2008,-3.2008,-3.2008,0,0,0,-3.1888,-3.1926,-3.1929,-3.1892,-3.1895,-3.1934,-3.1914,-3.1966,-3.1971,-3.1996,-3.2012,-3.2014,-3.2009,-3.2009,-3.2009,-3.2157,-3.2158,0,0,-3.1886,-3.1902,-3.1926,-3.1933,-3.1926,-3.1913,-3.1916,-3.1969,-3.1988,-3.2012,-3.2016,-3.201,-3.2009,-3.201,-3.2156,-3.2157,0,0,0,-3.1884,-3.1901,-3.1902,-3.193,-3.1936,-3.1914,-3.1917,-3.1985,-3.1984,-3.2016,-3.2011,-3.201,-3.2011,-3.2155,-3.2156,-3.2219,0,0,0,-3.1882,-3.1899,-3.1901,-3.1911,-3.1935,-3.1961,-3.1933,-3.1981,-3.1986,-3.2011,-3.201,-3.2011,-3.2153,-3.2155,-3.2215,-3.2245,0,0,0,-3.1885,-3.1899,-3.1908,-3.1912,-3.193,-3.1959,-3.1961,-3.1981,-3.1983,-3.2008,-3.2012,-3.2153,-3.2155,-3.2211,-3.2239,-3.2289,0,0,0,-3.1892,-3.1963,-3.1909,-3.1988,-3.1929,-3.1998,-3.1961,-3.2011,-3.204,-3.201,-3.2154,-3.2156,-3.221,-3.2235,-3.2285,-3.2332,-3.2354,0,0,-3.199,-3.1976,-3.202,-3.1974,-3.2055,-3.1991,-3.2082,-3.2094,-3.2083,-3.2133,-3.2137,-3.2216,-3.2239,-3.2288,-3.247,-3.2487,0,0,0,-3.2057,-3.209,-3.2108,-3.2136,-3.2147,-3.2159,-3.2156,-3.2161,-3.2203,-3.2111,-3.2247,-3.226,-3.2289,-3.231,-3.2325,-3.2348,-3.2167,-3.2167,-3.2166,-3.2218,-3.22,-3.2274,-3.2261,-3.2289,-3.2286,-3.2308,-3.2314,-3.2287,-3.232,-3.2334,-3.2447,-3.2473,-3.2484,-3.2509,-3.2359,-3.2359,-3.2359,-3.236,-3.2361,-3.2404,-3.2368,-3.2426,-3.2408,-3.2458,-3.2459,-3.2439,-3.2484,-3.2434,-3.2458,-3.2405,-3.2503,-3.2524,-3.2364,-3.2363,-3.2363,-3.2362,-3.2362,-3.2463,-3.248,-3.2486,-3.2526,-3.256,-3.2546,-3.2591,-3.2573,-3.2556,-3.258,-3.2593,-3.2592,-3.2589,-3.2588,-3.2588,-3.2589,-3.2589,-3.2589,-3.259,-3.2566,-3.257,-3.2609,-3.2629,-3.2646,-3.2666,-3.2666,-3.2683,-3.2697,-3.2681,-3.2681,-3.2652,-3.2517,-3.2482,-3.2596,-3.2595,-3.2594,-3.2593,-3.2593,-3.2715,-3.2679,-3.2739,-3.2756,-3.2779,-3.2815,-3.2793,-3.2829,-3.2841,-3.2864,-3.2831,-3.2734,-3.2718,-3.2706,-3.2677,-3.2834,-3.2834,-3.2834,-3.2834,-3.28,-3.2791,-3.2849,-3.2878,-3.2905,-3.2891,-3.2963,-3.2965,-3.2962,-3.2969,-3.2945,-3.2906,-3.2895,-3.2885,-3.2869,-3.2842,-3.3038,-3.3038,-3.3038,-3.2891,-3.2884,-3.2946,-3.2942,-3.296,-3.2976,-3.3043,-3.3079,-3.3069,-3.3046,-3.2974,-3.2966,-3.2903,-3.2884,-3.2856,-3.2833,-3.2783,0,0]},{"header":{"parameterUnit":"m.s-1","parameterCategory":1,"la1":30.2992,"la2":30.254,"lo1":-89.0895,"lo2":-89.0443,"dy":0.0025,"dx":0.0025,"nx":19,"ny":19,"refTime":"2026-05-22T21:00:00:Z","depth":0,"parameterNumber":3,"parameterNumberName":"V-component_of_WINDS"},"data":[0,0,0,2.4496,2.4498,2.457,2.457,2.4634,2.4635,0,0,0,0,0,0,0,0,0,0,0,2.446,2.446,2.4496,2.4498,2.457,2.457,2.4634,2.4635,0,0,0,0,0,0,0,0,0,0,0,2.446,2.446,2.4459,2.4498,2.457,2.457,2.4634,2.4589,0,0,0,0,0,0,0,0,0,0,2.4524,2.4475,2.446,2.4459,2.4498,2.457,2.457,2.4588,2.4592,2.459,0,2.4586,0,2.4611,2.4637,2.4638,0,0,0,2.4509,2.4471,2.4505,2.4459,2.4499,2.457,2.454,2.4591,2.4596,2.4596,2.4587,2.459,2.4612,2.4638,2.4638,2.4594,2.4593,0,0,2.4505,2.4464,2.4501,2.4508,2.4497,2.4538,2.4542,2.4594,2.4581,2.4587,2.4592,2.4613,2.4638,2.4638,2.4595,2.4594,0,0,0,2.4486,2.446,2.4494,2.4504,2.452,2.454,2.4545,2.4579,2.4593,2.4593,2.4614,2.4638,2.4639,2.4596,2.4594,2.4519,0,0,0,2.4484,2.445,2.4491,2.4467,2.4518,2.455,2.4528,2.4589,2.4597,2.4614,2.4638,2.4639,2.4596,2.4595,2.4523,2.4488,0,0,0,2.446,2.4447,2.4453,2.4465,2.4495,2.4551,2.4568,2.4592,2.4609,2.4638,2.4639,2.4597,2.4595,2.4526,2.4494,2.4464,0,0,0,2.4422,2.4384,2.4451,2.4416,2.4494,2.4504,2.4568,2.4578,2.4594,2.4638,2.4596,2.4594,2.4527,2.4498,2.4467,2.4429,2.4411,0,0,2.4351,2.4373,2.4356,2.4419,2.4407,2.4497,2.4474,2.4526,2.4565,2.4582,2.4581,2.4521,2.4495,2.4465,2.4323,2.4307,0,0,0,2.432,2.4306,2.4312,2.4327,2.4367,2.4398,2.4459,2.4479,2.4495,2.4566,2.4505,2.449,2.4474,2.4457,2.4444,2.4432,2.4586,2.4586,2.4586,2.4157,2.4212,2.4186,2.4249,2.4262,2.4326,2.4341,2.4378,2.4428,2.4412,2.4416,2.4324,2.4303,2.4293,2.428,2.4403,2.4402,2.4402,2.4402,2.4055,2.4044,2.4114,2.4114,2.4171,2.4171,2.4231,2.4266,2.4273,2.4325,2.4313,2.4362,2.4275,2.4266,2.4397,2.4398,2.4398,2.4399,2.4399,2.3953,2.3957,2.3983,2.4009,2.4023,2.4089,2.4093,2.4145,2.4194,2.4183,2.4192,2.4193,2.4199,2.4184,2.4184,2.4183,2.4183,2.4183,2.4183,2.3835,2.3867,2.3865,2.3906,2.3922,2.3949,2.4014,2.4031,2.4062,2.4099,2.41,2.4149,2.4258,2.4282,2.4178,2.4179,2.4179,2.418,2.418,2.3707,2.3745,2.3741,2.3757,2.3809,2.3818,2.3887,2.3916,2.3937,2.3937,2.3991,2.4063,2.409,2.41,2.4121,2.3981,2.3981,2.3981,2.3981,2.3618,2.3638,2.3646,2.3668,2.3696,2.3758,2.375,2.38,2.3857,2.3873,2.3902,2.3934,2.3943,2.3964,2.3978,2.3997,2.383,2.3829,2.3829,2.3542,2.3567,2.355,2.3609,2.3654,2.369,2.3684,2.3705,2.3778,2.3824,2.3886,2.3893,2.3946,2.3961,2.4005,2.4025,2.4062,0,0]}]]